Total_Precipitation_Accumulation
0.00 0.00 0.00 0.00 0.00 0.00 0.00 0.00 0.00 0.00 0.00 0.00 0.00 0.00 0.00 0.01 0.03 0.02 0.01 0.04 0.04 0.04 0.07 0.09 0.12 0.16 0.21 0.20 0.22 0.25 0.36 0.52 0.68 0.77 0.62 0.40 0.29 0.23 0.19 0.22 0.29 0.35 0.40 0.46
0.00 0.00 0.00 0.00 0.00 0.00 0.00 0.00 0.00 0.00 0.00 0.00 0.00 0.00 0.00 0.00 0.01 0.01 0.01 0.03 0.03 0.05 0.09 0.11 0.12 0.12 0.13 0.15 0.16 0.21 0.27 0.33 0.43 0.47 0.38 0.24 0.11 0.06 0.09 0.14 0.18 0.23 0.26 0.28
0.00 0.00 0.00 0.00 0.00 0.00 0.00 0.00 0.00 0.01 0.01 0.01 0.01 0.01 0.01 0.00 0.00 0.00 0.00 0.00 0.00 0.01 0.02 0.03 0.06 0.07 0.07 0.09 0.15 0.25 0.31 0.30 0.35 0.37 0.31 0.18 0.07 0.04 0.05 0.07 0.09 0.10 0.10 0.10
0.00 0.00 0.00 0.00 0.00 0.01 0.01 0.01 0.02 0.02 0.02 0.01 0.01 0.01 0.01 0.00 0.00 0.00 0.00 0.01 0.01 0.01 0.02 0.02 0.03 0.03 0.04 0.07 0.15 0.23 0.26 0.25 0.31 0.35 0.31 0.21 0.13 0.08 0.06 0.05 0.06 0.06 0.05 0.03
0.00 0.00 0.00 0.00 0.02 0.03 0.03 0.02 0.01 0.02 0.02 0.02 0.01 0.01 0.01 0.00 0.00 0.01 0.01 0.01 0.01 0.02 0.03 0.03 0.03 0.04 0.04 0.07 0.13 0.19 0.22 0.24 0.26 0.30 0.29 0.22 0.18 0.14 0.10 0.07 0.06 0.05 0.03 0.01
0.00 0.01 0.02 0.02 0.03 0.05 0.03 0.04 0.03 0.03 0.02 0.01 0.01 0.04 0.02 0.00 0.01 0.01 0.01 0.01 0.02 0.02 0.03 0.03 0.04 0.07 0.09 0.10 0.14 0.19 0.21 0.21 0.23 0.28 0.29 0.22 0.17 0.14 0.10 0.09 0.06 0.04 0.02 0.01
0.02 0.05 0.05 0.02 0.03 0.03 0.07 0.10 0.04 0.02 0.01 0.02 0.05 0.08 0.03 0.01 0.01 0.01 0.01 0.02 0.03 0.04 0.04 0.05 0.08 0.11 0.13 0.13 0.14 0.16 0.18 0.19 0.23 0.30 0.29 0.25 0.21 0.17 0.12 0.07 0.05 0.06 0.04 0.03
0.04 0.06 0.06 0.02 0.02 0.04 0.05 0.04 0.03 0.03 0.03 0.03 0.03 0.02 0.02 0.01 0.01 0.01 0.02 0.03 0.04 0.05 0.07 0.10 0.13 0.17 0.19 0.19 0.18 0.18 0.18 0.21 0.28 0.28 0.20 0.16 0.19 0.18 0.13 0.08 0.06 0.06 0.05 0.04
0.04 0.05 0.02 0.01 0.02 0.02 0.03 0.05 0.04 0.04 0.02 0.03 0.03 0.03 0.02 0.03 0.02 0.03 0.03 0.04 0.06 0.09 0.12 0.16 0.21 0.27 0.30 0.30 0.28 0.24 0.22 0.25 0.28 0.26 0.23 0.23 0.18 0.14 0.10 0.08 0.05 0.02 0.02 0.02
0.05 0.03 0.02 0.02 0.02 0.02 0.02 0.03 0.02 0.02 0.02 0.03 0.05 0.05 0.05 0.05 0.04 0.04 0.05 0.06 0.07 0.10 0.15 0.23 0.32 0.39 0.42 0.39 0.34 0.28 0.24 0.24 0.25 0.25 0.23 0.23 0.23 0.17 0.10 0.08 0.06 0.03 0.02 0.02
0.05 0.04 0.03 0.03 0.03 0.02 0.01 0.01 0.01 0.02 0.02 0.04 0.06 0.06 0.06 0.06 0.06 0.06 0.05 0.05 0.06 0.10 0.18 0.27 0.39 0.47 0.46 0.42 0.39 0.36 0.32 0.27 0.24 0.21 0.19 0.22 0.20 0.20 0.15 0.14 0.06 0.04 0.03 0.01
0.06 0.07 0.08 0.07 0.04 0.02 0.02 0.02 0.03 0.03 0.03 0.03 0.04 0.06 0.06 0.06 0.07 0.07 0.06 0.06 0.09 0.14 0.19 0.23 0.33 0.46 0.49 0.47 0.44 0.42 0.41 0.38 0.31 0.23 0.20 0.18 0.18 0.10 0.04 0.05 0.01 0.01 0.01 0.01
0.06 0.05 0.06 0.06 0.05 0.04 0.05 0.04 0.03 0.03 0.03 0.04 0.04 0.05 0.05 0.06 0.06 0.05 0.05 0.06 0.09 0.13 0.16 0.17 0.22 0.32 0.41 0.49 0.53 0.53 0.49 0.48 0.42 0.29 0.20 0.15 0.14 0.10 0.04 0.01 0.00 0.00 0.00 0.00
0.03 0.04 0.05 0.05 0.04 0.03 0.03 0.03 0.02 0.02 0.03 0.03 0.03 0.04 0.04 0.05 0.05 0.06 0.06 0.06 0.06 0.08 0.11 0.15 0.21 0.28 0.35 0.44 0.52 0.54 0.53 0.52 0.47 0.36 0.21 0.14 0.10 0.07 0.07 0.04 0.01 0.00 0.00 0.00
0.02 0.04 0.05 0.04 0.02 0.02 0.03 0.03 0.02 0.03 0.03 0.04 0.04 0.04 0.04 0.05 0.06 0.06 0.06 0.05 0.06 0.08 0.10 0.15 0.21 0.28 0.38 0.47 0.52 0.52 0.50 0.49 0.45 0.38 0.27 0.18 0.12 0.06 0.05 0.05 0.03 0.01 0.00 0.00
0.01 0.01 0.02 0.02 0.02 0.03 0.04 0.04 0.04 0.04 0.05 0.05 0.05 0.05 0.05 0.05 0.05 0.06 0.06 0.07 0.08 0.09 0.10 0.15 0.20 0.28 0.40 0.50 0.54 0.52 0.50 0.45 0.40 0.35 0.27 0.21 0.16 0.07 0.03 0.04 0.04 0.03 0.01 0.00
0.03 0.02 0.01 0.02 0.03 0.05 0.06 0.07 0.06 0.06 0.06 0.06 0.06 0.06 0.06 0.06 0.07 0.08 0.09 0.09 0.10 0.10 0.11 0.15 0.20 0.27 0.40 0.50 0.55 0.53 0.49 0.42 0.35 0.31 0.25 0.21 0.17 0.09 0.03 0.02 0.02 0.02 0.01 0.00
0.03 0.04 0.04 0.05 0.06 0.08 0.09 0.10 0.10 0.10 0.10 0.11 0.11 0.11 0.12 0.13 0.14 0.14 0.14 0.15 0.16 0.15 0.13 0.16 0.21 0.28 0.36 0.46 0.52 0.52 0.51 0.46 0.34 0.25 0.21 0.20 0.18 0.11 0.05 0.02 0.01 0.01 0.01 0.00
0.03 0.04 0.06 0.11 0.16 0.17 0.17 0.17 0.18 0.18 0.19 0.18 0.18 0.19 0.20 0.21 0.22 0.22 0.22 0.23 0.23 0.21 0.19 0.20 0.21 0.24 0.31 0.39 0.48 0.50 0.46 0.45 0.35 0.22 0.16 0.16 0.16 0.12 0.06 0.02 0.01 0.01 0.00 0.00
0.03 0.03 0.05 0.15 0.27 0.32 0.32 0.31 0.31 0.30 0.27 0.26 0.27 0.27 0.27 0.25 0.25 0.25 0.27 0.28 0.26 0.26 0.26 0.27 0.25 0.23 0.27 0.36 0.44 0.45 0.40 0.40 0.37 0.22 0.13 0.13 0.12 0.09 0.05 0.02 0.01 0.00 0.00 0.00
0.01 0.02 0.03 0.06 0.13 0.21 0.26 0.27 0.28 0.31 0.32 0.36 0.43 0.46 0.45 0.37 0.32 0.32 0.33 0.28 0.25 0.30 0.33 0.29 0.23 0.21 0.24 0.37 0.43 0.42 0.37 0.35 0.36 0.23 0.11 0.09 0.09 0.07 0.04 0.02 0.01 0.01 0.00 0.00
0.02 0.03 0.04 0.06 0.07 0.09 0.10 0.13 0.19 0.29 0.36 0.41 0.44 0.49 0.51 0.48 0.42 0.37 0.31 0.27 0.26 0.31 0.33 0.30 0.25 0.23 0.23 0.31 0.40 0.39 0.36 0.34 0.33 0.25 0.12 0.07 0.06 0.04 0.02 0.01 0.01 0.00 0.00 0.00
0.01 0.02 0.02 0.03 0.04 0.06 0.08 0.10 0.16 0.26 0.35 0.41 0.45 0.51 0.54 0.47 0.42 0.40 0.29 0.22 0.25 0.30 0.32 0.31 0.28 0.26 0.22 0.20 0.28 0.32 0.32 0.32 0.28 0.22 0.12 0.05 0.03 0.01 0.01 0.01 0.00 0.00 0.00 0.00
0.01 0.02 0.02 0.02 0.04 0.06 0.09 0.13 0.17 0.25 0.33 0.38 0.42 0.49 0.55 0.50 0.38 0.28 0.23 0.19 0.19 0.20 0.24 0.26 0.24 0.23 0.20 0.15 0.17 0.23 0.26 0.27 0.22 0.16 0.10 0.04 0.01 0.01 0.00 0.00 0.00 0.00 0.00 0.00
0.02 0.02 0.03 0.04 0.09 0.15 0.23 0.29 0.33 0.37 0.44 0.46 0.43 0.44 0.46 0.45 0.39 0.26 0.17 0.15 0.15 0.15 0.18 0.20 0.19 0.19 0.16 0.12 0.11 0.15 0.19 0.20 0.16 0.11 0.06 0.03 0.01 0.00 0.00 0.00 0.00 0.00 0.00 0.00
0.03 0.03 0.04 0.07 0.14 0.25 0.38 0.50 0.59 0.62 0.69 0.73 0.61 0.51 0.46 0.40 0.34 0.26 0.19 0.14 0.14 0.13 0.14 0.18 0.19 0.16 0.13 0.10 0.08 0.09 0.13 0.14 0.11 0.07 0.03 0.02 0.00 0.00 0.00 0.00 0.00 0.00 0.00 0.00
0.05 0.05 0.06 0.10 0.18 0.30 0.46 0.61 0.73 0.81 0.86 0.92 0.82 0.62 0.50 0.41 0.35 0.29 0.22 0.18 0.18 0.17 0.17 0.18 0.19 0.18 0.15 0.11 0.07 0.07 0.08 0.08 0.06 0.03 0.02 0.01 0.01 0.00 0.00 0.00 0.00 0.00 0.00 0.00